Probability
8 8 8 5 3 1 0 0 0 0 0 0 0 0 0 0 0 1 0 0 0 0 0 0 0 0 0 0 0 0 0 0 0 0 0 0 0 0 0 0 0 0 0
11 9 8 6 3 2 1 0 0 0 0 0 0 0 0 0 0 1 0 0 0 0 0 0 0 0 0 0 0 0 0 0 0 0 0 0 0 0 0 0 0 0 0
13 10 9 8 6 4 2 1 0 0 1 1 2 2 0 0 0 0 0 0 0 0 0 0 0 0 0 0 0 0 0 0 0 0 0 0 0 0 0 0 0 0 0
12 10 10 11 10 7 4 2 1 1 2 3 4 3 1 0 0 0 0 0 0 0 0 0 0 0 0 0 0 0 0 0 0 0 0 0 0 0 0 0 0 1 1
13 12 13 15 15 11 8 5 2 1 3 5 5 3 1 0 0 0 0 0 0 0 0 0 0 0 0 0 0 0 0 0 0 0 0 0 0 0 0 0 1 2 2
16 15 15 17 18 15 12 9 6 2 2 4 5 4 3 1 0 0 0 0 0 0 0 0 0 0 0 0 0 0 0 0 0 0 0 0 0 0 0 1 2 2 2
21 18 16 19 19 17 13 11 8 3 1 3 5 5 4 3 1 0 0 0 0 0 0 0 0 0 0 0 0 0 0 0 0 0 0 1 2 1 0 1 1 1 1
24 19 16 16 16 15 13 11 10 6 3 4 6 5 4 3 2 1 0 0 1 1 0 0 0 0 0 0 0 0 0 0 0 0 1 4 7 5 1 0 0 0 0
22 18 12 9 9 10 10 10 10 8 7 6 6 5 4 2 2 2 1 2 2 2 1 0 0 0 0 0 0 0 0 0 0 0 1 8 15 13 6 1 0 0 0
20 16 9 6 6 6 6 8 9 9 8 7 5 4 4 3 3 3 3 4 4 4 3 2 2 1 1 1 0 0 0 0 0 0 5 15 25 22 12 4 0 0 0
24 19 12 10 8 7 6 8 9 10 9 7 5 5 5 5 4 5 9 12 11 7 6 5 4 4 3 2 2 2 1 0 0 2 13 30 37 30 19 10 4 2 1
31 24 17 15 14 13 13 14 13 12 12 9 8 10 10 7 7 10 20 27 20 11 8 8 9 8 6 5 6 8 5 1 1 5 22 43 47 36 25 16 10 6 3
35 29 23 22 25 27 25 23 20 20 20 16 15 18 17 13 14 20 31 34 26 16 13 13 13 12 9 8 10 11 8 4 4 10 28 47 52 43 30 20 14 10 7
41 37 34 36 42 45 41 35 31 30 28 26 27 28 27 25 26 31 37 38 31 24 24 23 21 18 15 13 12 11 10 9 12 18 31 45 50 45 35 25 17 12 10
46 46 48 52 56 58 56 48 41 39 37 37 39 38 36 37 38 40 44 44 39 35 35 35 31 29 28 24 18 13 13 16 22 27 33 42 46 42 35 29 23 16 12
51 54 58 60 61 61 59 53 45 43 44 43 45 42 40 42 44 44 47 48 44 40 38 37 36 38 39 34 27 21 20 22 27 31 34 39 41 38 35 33 29 21 14
57 59 60 59 58 57 54 49 42 41 41 42 43 42 37 37 38 38 40 43 41 37 35 35 38 42 42 37 32 29 26 24 27 28 29 32 35 36 36 36 33 26 21
62 62 59 53 52 52 49 45 40 37 38 38 40 39 33 27 27 29 30 34 35 33 33 36 39 43 41 36 32 30 27 25 24 22 22 26 30 35 36 36 34 29 25
62 62 58 53 52 51 48 46 42 39 38 39 39 37 31 24 21 21 23 27 28 30 34 34 35 37 36 31 25 22 22 24 23 20 22 25 30 35 35 36 35 29 24
61 61 59 57 55 53 49 47 44 40 38 38 36 33 30 25 20 17 19 22 22 27 31 30 27 27 27 24 16 12 15 20 22 23 24 26 29 32 33 35 34 29 24
59 59 59 58 56 53 50 47 44 41 38 36 33 30 26 23 18 16 17 19 20 23 26 25 21 19 18 18 13 9 10 15 19 21 23 24 23 25 28 29 29 29 28
55 54 54 54 53 53 51 48 45 41 38 36 33 30 25 20 15 14 15 17 19 20 21 21 19 15 12 11 11 8 6 9 12 15 18 18 17 19 22 24 25 26 27
50 49 48 49 50 51 51 47 40 35 33 32 32 30 25 18 13 11 11 12 12 13 14 16 16 13 8 6 6 5 4 4 7 10 12 12 12 15 18 19 19 20 21
49 47 46 47 49 50 49 42 34 30 28 28 28 27 22 17 11 8 7 6 6 7 6 8 10 8 6 4 3 3 4 4 5 6 6 6 7 10 13 14 13 14 16
44 42 42 45 48 48 45 40 34 30 28 27 24 21 19 15 9 5 3 4 5 5 3 3 4 5 4 2 2 3 4 5 5 4 3 3 3 5 7 8 9 10 12
38 36 37 42 47 46 43 40 37 32 29 27 23 19 17 13 7 2 2 3 4 4 3 3 3 2 2 1 1 2 4 5 5 4 2 2 2 2 4 6 7 8 9
Wind_Speed
15 15 14 12 10 10 11 12 11 11 10 10 10 10 10 9 9 10 10 10 9 8 8 7 6 5 6 7 8 8 9 9 9 10 11 11 10 9 8 7 7 10 12
18 16 15 13 11 11 11 12 12 11 10 10 10 9 9 9 8 8 8 8 8 8 7 6 6 6 6 6 6 6 6 6 6 7 8 9 10 9 8 9 9 9 11
18 16 14 13 12 12 12 12 12 11 10 10 9 9 8 8 7 7 7 7 7 6 6 6 6 6 6 5 5 4 4 3 2 3 5 5 8 9 8 10 12 11 10
18 15 14 14 12 12 12 12 12 11 11 10 9 9 8 7 6 6 6 6 6 5 5 5 5 5 5 4 4 3 2 0 2 4 4 3 6 9 9 9 9 9 9
17 16 15 14 13 12 12 12 11 11 11 10 10 9 8 7 6 6 5 5 5 4 4 4 4 4 4 3 2 2 1 3 5 7 4 3 7 10 9 8 8 7 7
17 16 15 14 13 12 12 11 11 11 10 10 9 8 8 6 6 5 5 4 4 4 3 3 3 3 3 2 1 1 3 5 8 6 4 6 9 11 10 8 7 6 6
17 16 14 14 13 12 11 11 11 10 10 9 8 8 7 6 5 5 4 4 4 3 3 3 2 2 2 1 2 2 4 7 8 6 3 5 9 13 11 8 7 6 6
16 16 13 13 12 12 11 10 10 9 9 8 8 7 6 6 5 4 4 4 4 3 3 3 3 3 2 3 3 4 6 9 8 6 2 6 12 13 12 9 7 6 6
16 15 12 11 10 11 10 10 9 8 8 7 7 6 6 6 6 6 5 5 4 4 4 4 4 4 4 4 5 6 8 9 9 6 3 5 12 13 12 10 8 7 7
14 13 12 11 11 10 9 10 9 8 8 7 7 7 7 7 8 8 7 7 6 5 5 6 6 6 6 7 8 9 9 9 9 6 2 5 13 13 12 10 10 9 8
11 10 10 11 10 10 10 11 10 9 8 8 8 9 8 7 8 8 9 10 9 7 7 7 8 8 8 10 12 12 10 6 7 4 3 9 13 12 12 11 11 10 10
10 9 8 8 9 8 7 8 7 7 7 7 6 7 6 5 4 5 8 11 10 9 9 10 10 9 9 7 10 13 7 9 7 4 4 14 13 13 12 11 11 11 11
9 7 7 7 5 5 4 5 4 3 4 5 5 5 4 4 3 2 3 5 6 8 7 7 8 6 6 5 4 5 7 7 3 2 5 13 13 12 12 11 11 12 12
8 6 6 6 4 3 3 3 3 2 2 2 2 2 2 1 2 1 1 2 3 3 3 3 3 5 5 6 5 4 6 4 1 0 3 10 11 11 11 11 11 11 12
6 6 6 5 5 4 2 1 2 2 2 2 2 1 1 1 1 1 1 1 2 1 2 2 3 3 4 4 5 4 4 3 2 0 2 9 9 8 9 10 11 11 11
6 5 5 5 5 4 2 1 1 1 1 1 2 1 0 1 1 1 2 1 2 2 1 2 3 3 3 2 4 5 5 4 2 1 1 5 8 9 9 9 10 10 11
6 6 5 5 4 3 3 1 1 0 0 1 1 2 1 1 1 1 2 1 1 2 2 2 3 2 3 3 4 5 4 4 4 3 2 2 4 8 10 9 9 9 9
6 6 4 4 5 3 2 1 1 0 0 1 1 1 1 1 2 2 2 1 2 3 2 2 2 2 3 3 3 3 3 3 5 4 3 3 2 3 5 8 9 9 9
6 5 4 4 4 3 3 1 1 0 1 1 2 2 1 1 1 2 2 1 3 2 2 3 1 1 3 3 4 4 4 4 4 5 3 3 2 2 3 6 9 8 8
6 5 4 3 3 3 2 1 1 1 1 1 1 1 1 1 1 2 2 1 2 2 2 2 2 2 2 3 5 4 3 4 3 3 3 3 2 3 3 4 4 6 8
6 5 4 3 3 2 2 2 2 2 1 1 1 1 1 0 1 1 2 2 2 1 2 3 2 3 3 2 2 3 4 4 3 2 2 2 2 3 3 3 3 3 4
5 4 4 3 3 2 2 1 1 1 1 1 1 1 0 0 1 1 1 2 2 2 2 2 2 2 3 2 2 2 2 2 1 2 1 2 2 2 2 3 3 3 3
4 4 3 3 3 2 1 1 1 1 1 1 1 1 1 1 0 1 1 2 2 2 2 2 2 3 3 3 2 2 2 2 2 2 2 1 1 1 1 1 2 2 4
4 3 4 4 3 1 1 1 1 1 1 0 0 1 1 1 1 0 1 2 2 2 2 3 3 3 3 3 2 2 2 1 2 2 1 1 1 1 2 1 1 1 2
4 4 4 4 3 2 1 1 0 0 0 1 1 2 1 0 1 1 2 2 2 2 2 2 2 3 2 2 2 3 3 2 3 2 2 2 2 1 1 1 0 1 1
4 4 4 4 3 2 2 2 1 1 1 1 1 0 0 0 1 2 2 2 2 2 2 2 2 2 2 2 2 2 2 2 2 2 3 2 2 2 1 1 1 1 1
Wind_Direction
120 120 119 119 121 128 134 137 134 129 126 124 119 113 105 98 94 90 88 89 90 93 95 96 94 85 78 71 66 66 70 74 78 85 91 92 91 86 81 83 106 97 99
119 121 117 116 120 126 132 135 135 131 129 129 126 122 116 109 103 98 96 94 94 97 99 96 94 95 93 86 79 76 78 84 94 106 116 112 103 92 77 66 81 102 104
118 123 119 116 120 126 131 132 133 132 132 131 130 128 123 118 114 109 104 99 97 99 100 98 96 98 98 95 91 88 88 99 123 150 170 138 118 106 91 87 95 105 107
124 129 121 120 121 126 131 133 134 135 136 134 133 132 129 128 125 119 113 107 104 102 101 100 100 99 99 101 101 101 103 231 249 242 223 193 131 119 110 103 105 109 112
125 120 120 123 122 125 130 134 136 138 138 139 138 138 137 139 137 131 126 121 116 111 107 107 109 110 108 108 112 119 201 271 278 268 257 147 119 131 124 120 118 117 120
125 121 124 125 125 126 130 134 138 140 141 142 143 144 145 145 145 143 141 138 134 129 126 121 121 127 132 136 149 205 265 280 286 273 262 136 127 136 134 136 136 132 132
123 122 127 128 128 130 133 136 139 140 142 145 147 148 148 148 150 158 161 162 159 155 154 148 149 154 166 183 208 244 270 281 273 280 262 127 135 143 143 147 150 149 153
121 122 128 132 134 137 139 139 141 144 146 148 150 154 155 157 167 176 177 177 179 182 185 185 193 202 214 228 241 256 271 281 281 293 260 126 145 148 150 157 164 166 169
123 128 139 141 142 145 146 146 145 147 151 154 157 162 168 176 186 192 192 193 197 202 209 213 217 225 230 238 245 255 266 275 287 286 279 133 152 152 156 166 176 182 183
128 134 143 150 150 156 155 155 154 156 161 167 173 180 187 196 203 206 203 200 205 211 220 226 228 233 236 241 245 250 258 272 266 269 252 160 159 158 163 174 185 192 195
131 138 148 152 156 166 163 159 161 167 176 183 190 198 203 212 208 206 214 190 201 214 225 231 233 237 241 241 241 243 250 250 252 249 205 159 162 166 171 181 191 198 202
140 146 149 152 160 170 160 151 171 180 179 200 198 193 211 231 226 208 186 186 199 214 227 232 237 241 241 245 234 231 239 239 242 235 176 160 167 175 179 187 196 203 207
143 146 147 149 148 140 131 155 173 181 170 204 215 196 215 239 234 201 176 184 202 215 224 223 226 236 240 247 246 210 233 249 241 220 162 165 171 177 185 193 203 209 213
147 150 136 126 118 110 122 150 149 150 161 187 186 206 217 247 276 263 218 186 199 213 211 221 223 234 246 256 261 242 242 250 272 358 153 171 175 178 188 199 207 213 215
148 143 122 117 107 101 90 132 143 144 161 164 157 187 247 253 276 301 300 282 261 253 209 224 232 250 259 270 282 289 283 273 276 189 170 181 178 186 197 202 205 210 215
143 127 116 115 114 116 117 115 90 139 130 140 141 138 266 325 337 334 311 303 283 283 277 254 252 251 262 277 288 289 288 293 290 270 202 181 187 194 204 209 209 213 219
132 122 121 121 119 124 134 144 127 329 153 110 103 101 66 348 343 315 289 279 291 279 273 271 280 280 265 258 257 264 271 279 282 274 249 201 193 203 209 211 212 216 220
130 130 127 133 126 124 113 110 107 329 14 87 95 95 79 2 334 311 301 311 303 280 265 255 264 278 274 272 267 270 269 263 258 254 244 230 212 203 201 209 215 219 220
129 128 131 119 124 131 134 150 145 100 40 54 70 61 56 359 330 308 297 308 293 285 289 288 320 288 281 275 264 251 249 247 243 245 233 226 217 203 194 196 206 211 218
123 123 131 133 126 134 144 165 176 204 122 75 74 63 49 335 340 319 288 307 301 305 323 324 314 289 270 267 276 279 266 252 243 236 239 227 213 213 206 195 192 211 213
131 137 147 151 148 160 159 181 187 193 172 165 150 129 138 25 352 299 326 320 313 327 337 319 307 292 282 282 285 285 271 254 240 229 235 243 231 222 207 194 190 191 192
132 142 148 158 163 175 166 180 180 162 193 166 120 116 123 28 309 293 357 330 352 330 331 321 326 311 313 316 293 292 286 280 289 263 231 223 238 239 216 210 202 192 177
144 146 150 148 155 171 174 159 136 147 209 166 137 122 63 339 314 351 356 6 348 332 350 328 340 328 314 312 299 289 290 292 322 280 271 263 237 266 261 227 203 200 190
150 143 135 132 140 154 155 154 198 199 194 91 62 91 59 3 358 25 17 19 0 351 355 335 18 332 317 314 317 298 279 291 288 301 303 295 295 292 288 280 240 213 199
135 133 125 124 128 138 149 125 225 354 72 68 54 73 63 48 38 40 47 27 3 351 359 349 343 328 320 324 323 317 310 294 261 264 278 287 287 278 287 291 293 255 206
123 123 124 120 117 113 105 92 78 62 57 69 50 160 256 140 75 50 40 28 1 352 344 327 314 307 311 316 308 302 308 309 303 290 280 284 277 280 278 274 243 230 196